Location: Newark
(7.5381°N, 8.4972°W)
Time: 02:10:01
(UTC+00:00)

ISS - Visible Passes

Search period start: 21 October 2019 00:00
Search period end: 31 October 2019 00:00
Orbit: 411 x 421 km, 51.6° (Epoch: 21 October)

Date Brightness Start Highest point End Pass type
(mag) Time Alt. Az. Time Alt. Az. Time Alt. Az.
21 Oct -3.9 05:26:25 10° SW 05:29:47 77° NW 05:33:07 10° NNE visible
22 Oct -2.2 04:41:55 35° E 04:41:55 35° E 04:44:26 10° NE visible
23 Oct -1.8 05:30:08 14° NW 05:30:08 14° NW 05:31:25 10° NNW visible
